CW5316 Weather Reports


Display with metric or nautical units.
time (UTC)temp
F
wind
direction
speed
MPH
gust
MPH
rain 1hr
in
rain 24hr
in
rain mn
in
humidity
%
barometer
mb
20260901014549 67 0 0.0 0.0 0.00 0.00 0.00 75 1009.0
20260901014024 68 0 0.0 0.0 0.00 0.00 0.00 74 1008.9
20260901013524 68 0 0.0 0.0 0.00 0.00 0.00 74 1008.9
20260901013049 68 0 0.0 0.0 0.00 0.00 0.00 73 1008.9
20260901012520 69 0 0.0 0.0 0.00 0.00 0.00 73 1008.9
20260901012024 69 0 0.0 0.0 0.00 0.00 0.00 72 1008.8
20260901011544 70 0 0.0 0.0 0.00 0.00 0.00 71 1008.8
20260901011026 70 0 0.0 2.0 0.00 0.00 0.00 69 1008.7
20260901010526 71 0 0.0 2.0 0.00 0.00 0.00 69 1008.8
20260901010042 72 267 0.0 2.0 0.00 0.00 0.00 67 1008.8
20260901005524 72 240 0.0 2.0 0.00 0.00 0.00 65 1008.9
20260901005023 73 0 0.0 2.0 0.00 0.00 0.00 63 1008.9
20260901004552 72 0 0.0 2.0 0.00 0.00 0.00 62 1008.8
20260901004022 72 0 0.0 2.0 0.00 0.00 0.00 58 1008.8
20260901003522 73 0 0.0 1.0 0.00 0.00 0.00 59 1008.8
20260901003057 74 0 0.0 2.0 0.00 0.00 0.00 59 1008.8
20260901002523 74 0 0.0 4.0 0.00 0.00 0.00 58 1008.7
20260901002025 74 282 0.0 4.0 0.00 0.00 0.00 58 1008.8
20260901001559 75 244 0.0 4.0 0.00 0.00 0.00 58 1008.9
20260901001024 74 0 0.0 4.0 0.00 0.00 0.00 58 1009.0
20260901000522 74 0 0.0 3.0 0.00 0.00 0.00 57 1009.0
20260901000040 74 0 0.0 3.0 0.00 0.00 0.00 58 1009.1
20260831235530 74 0 0.0 3.0 0.00 0.00 0.00 57 1009.1
20260831235024 74 250 0.0 2.0 0.00 0.00 0.00 58 1009.1
20260831234544 74 242 0.0 2.0 0.00 0.00 0.00 57 1009.2
20260831234023 74 238 0.0 3.0 0.00 0.00 0.00 56 1009.3
20260831233524 75 258 0.0 3.0 0.00 0.00 0.00 55 1009.2
20260831233043 75 246 0.0 3.0 0.00 0.00 0.00 56 1009.3
20260831232523 76 236 1.0 3.0 0.00 0.00 0.00 54 1009.3
20260831232024 76 231 0.0 4.0 0.00 0.00 0.00 55 1009.4
20260831231551 75 272 0.0 4.0 0.00 0.00 0.00 55 1009.3
20260831231025 75 155 1.0 4.0 0.00 0.00 0.00 55 1009.4
20260831230522 75 101 0.0 4.0 0.00 0.00 0.00 55 1009.4
20260831230050 75 101 2.0 4.0 0.00 0.00 0.00 56 1009.6
20260831225526 75 113 0.0 3.0 0.00 0.00 0.00 55 1009.6
20260831225027 75 70 0.0 3.0 0.00 0.00 0.00 54 1009.6
20260831224545 75 0 0.0 4.0 0.00 0.00 0.00 55 1009.7
20260831224025 75 0 1.0 4.0 0.00 0.00 0.00 54 1009.7
20260831223525 76 224 1.0 4.0 0.00 0.00 0.00 54 1009.7
20260831223043 75 0 1.0 4.0 0.00 0.00 0.00 54 1009.7
20260831222521 76 0 0.0 4.0 0.00 0.00 0.00 55 1009.8
20260831222031 75 0 0.0 4.0 0.00 0.00 0.00 55 1010.0
20260831221600 74 227 1.0 4.0 0.00 0.00 0.00 56 1010.0
20260831221022 74 0 0.0 4.0 0.00 0.00 0.00 57 1010.1
20260831220524 74 0 1.0 4.0 0.00 0.00 0.00 56 1010.1
20260831220053 75 0 0.0 3.0 0.00 0.00 0.00 55 1010.2
20260831215523 74 0 0.0 6.0 0.00 0.00 0.00 58 1010.0
20260831215024 73 0 1.0 6.0 0.00 0.00 0.00 57 1010.1
20260831214555 74 127 1.0 3.0 0.00 0.00 0.00 56 1010.1
20260831214022 74 0 0.0 4.0 0.00 0.00 0.00 57 1010.2
20260831213528 74 0 1.0 4.0 0.00 0.00 0.00 56 1010.4
20260831213051 74 15 1.0 3.0 0.00 0.00 0.00 57 1010.4
20260831212524 73 0 0.0 3.0 0.00 0.00 0.00 57 1010.4
20260831212025 73 0 0.0 8.0 0.00 0.00 0.00 58 1010.7
20260831211541 72 0 1.0 8.0 0.00 0.00 0.00 58 1010.8
20260831211022 71 140 2.0 8.0 0.00 0.00 0.00 58 1010.8
20260831210523 72 78 2.0 6.0 0.00 0.00 0.00 59 1010.9
20260831210049 71 0 1.0 6.0 0.00 0.00 0.00 59 1010.9
20260831205522 72 0 1.0 6.0 0.00 0.00 0.00 58 1010.9
20260831205027 71 0 0.0 6.0 0.00 0.00 0.00 60 1011.0
20260831204553 71 121 1.0 6.0 0.00 0.00 0.00 58 1011.0
20260831204022 71 0 0.0 4.0 0.00 0.00 0.00 59 1011.0
20260831203522 72 0 0.0 6.0 0.00 0.00 0.00 58 1011.1
20260831203058 70 0 1.0 6.0 0.00 0.00 0.00 60 1011.2
20260831202524 71 90 1.0 5.0 0.00 0.00 0.00 59 1011.3
20260831202024 70 0 1.0 5.0 0.00 0.00 0.00 61 1011.3
20260831201540 70 0 1.0 5.0 0.00 0.00 0.00 63 1011.3
20260831201023 70 74 1.0 5.0 0.00 0.00 0.00 61 1011.4
20260831200523 69 0 0.0 7.0 0.00 0.00 0.00 63 1011.4
20260831200047 69 0 0.0 8.0 0.00 0.00 0.00 64 1011.5
20260831195524 68 132 3.0 8.0 0.00 0.00 0.00 63 1011.5
20260831195024 69 90 1.0 7.0 0.00 0.00 0.00 63 1011.6
20260831194545 69 0 0.0 4.0 0.00 0.00 0.00 64 1011.7
20260831194027 68 0 1.0 4.0 0.00 0.00 0.00 65 1011.8
20260831193523 68 125 0.0 4.0 0.00 0.00 0.00 65 1011.9
20260831193044 68 0 0.0 4.0 0.00 0.00 0.00 64 1011.9
20260831192523 68 269 0.0 4.0 0.00 0.00 0.00 65 1012.1
20260831192024 67 291 0.0 4.0 0.00 0.00 0.00 67 1012.1
20260831191600 66 0 2.0 6.0 0.00 0.00 0.00 67 1012.2
20260831191024 66 0 1.0 7.0 0.00 0.00 0.00 68 1012.2
20260831190523 66 105 1.0 7.0 0.00 0.00 0.00 69 1012.3
20260831190055 65 90 1.0 7.0 0.00 0.00 0.00 69 1012.4
20260831185526 65 298 1.0 7.0 0.00 0.00 0.00 69 1012.5
20260831185027 65 100 2.0 6.0 0.00 0.00 0.00 68 1012.5
20260831184550 65 0 0.0 6.0 0.00 0.00 0.00 70 1012.6
20260831184031 65 139 0.0 6.0 0.00 0.00 0.00 70 1012.7
20260831183529 64 106 1.0 6.0 0.00 0.00 0.00 70 1012.6
20260831183044 64 116 1.0 6.0 0.00 0.00 0.00 72 1012.8
20260831182525 63 106 1.0 6.0 0.00 0.00 0.00 71 1012.9
20260831182026 63 49 1.0 4.0 0.00 0.00 0.00 72 1013.0
20260831181549 63 102 1.0 6.0 0.00 0.00 0.00 71 1013.1
20260831181022 63 18 1.0 6.0 0.00 0.00 0.00 72 1013.1
20260831180524 63 277 0.0 6.0 0.00 0.00 0.00 74 1013.1
20260831180047 62 0 2.0 6.0 0.00 0.00 0.00 73 1013.0
20260831175524 63 109 1.0 4.0 0.00 0.00 0.00 72 1013.1
20260831175026 62 74 0.0 3.0 0.00 0.00 0.00 73 1013.2
20260831174544 62 124 1.0 7.0 0.00 0.00 0.00 73 1013.1
20260831174027 61 96 1.0 7.0 0.00 0.00 0.00 74 1013.1
20260831173524 61 0 1.0 4.0 0.00 0.00 0.00 74 1013.2
20260831173106 61 0 0.0 3.0 0.00 0.00 0.00 75 1013.2
20260831172526 60 0 0.0 3.0 0.00 0.00 0.00 76 1013.3
20260831172027 60 0 0.0 3.0 0.00 0.00 0.00 76 1013.4
20260831171547 60 133 1.0 3.0 0.00 0.00 0.00 76 1013.5
20260831171026 60 118 0.0 3.0 0.00 0.00 0.00 78 1013.6
20260831170525 60 67 0.0 3.0 0.00 0.00 0.00 78 1013.5
20260831170056 59 115 0.0 6.0 0.00 0.00 0.00 79 1013.7
20260831165524 58 86 0.0 6.0 0.00 0.00 0.00 80 1013.7
20260831165026 58 83 2.0 6.0 0.00 0.00 0.00 80 1013.7
20260831164559 58 113 0.0 4.0 0.00 0.00 0.00 81 1013.7
20260831164023 58 104 0.0 4.0 0.00 0.00 0.00 82 1013.7
20260831163524 57 121 1.0 4.0 0.00 0.00 0.00 81 1013.8
20260831163055 57 84 0.0 3.0 0.00 0.00 0.00 81 1013.8
20260831162526 57 0 0.0 3.0 0.00 0.00 0.00 82 1013.8
20260831162024 56 78 0.0 3.0 0.00 0.00 0.00 82 1013.8
20260831161549 56 86 0.0 3.0 0.00 0.00 0.00 83 1013.9
20260831161023 56 96 0.0 3.0 0.00 0.00 0.00 84 1013.9
20260831160527 55 0 0.0 3.0 0.00 0.00 0.00 83 1014.0
20260831160048 56 118 0.0 3.0 0.00 0.00 0.00 84 1014.0
20260831155526 55 0 0.0 1.0 0.00 0.00 0.00 85 1014.0
20260831155024 55 0 0.0 1.0 0.00 0.00 0.00 86 1014.1
20260831154606 55 0 0.0 1.0 0.00 0.00 0.00 86 1014.0
20260831154025 55 0 0.0 1.0 0.00 0.00 0.00 86 1014.0
20260831153523 55 0 0.0 1.0 0.00 0.00 0.00 86 1014.0
20260831153046 55 0 0.0 1.0 0.00 0.00 0.00 86 1014.0
20260831152523 54 0 0.0 0.0 0.00 0.00 0.00 87 1014.1
20260831152026 54 0 0.0 1.0 0.00 0.00 0.00 86 1014.0
20260831151547 54 0 0.0 2.0 0.00 0.00 0.00 86 1014.0
20260831151023 53 0 0.0 2.0 0.00 0.00 0.00 87 1014.0
20260831150526 53 0 0.0 2.0 0.00 0.00 0.00 87 1014.0
20260831150051 53 0 0.0 2.0 0.00 0.00 0.00 88 1014.0
20260831145523 52 117 0.0 2.0 0.00 0.00 0.00 89 1014.1
20260831145029 52 0 0.0 4.0 0.00 0.00 0.00 90 1014.1
20260831144549 52 0 0.0 4.0 0.00 0.00 0.00 91 1014.1
20260831144023 51 0 0.0 4.0 0.00 0.00 0.00 92 1014.1
20260831143525 51 0 0.0 0.0 0.00 0.00 0.00 92 1014.2
20260831143056 50 0 0.0 0.0 0.00 0.00 0.00 92 1014.2
20260831142523 50 0 0.0 0.0 0.00 0.00 0.00 93 1014.1
20260831142023 50 0 0.0 1.0 0.00 0.00 0.00 92 1014.2
20260831141557 50 0 0.0 1.0 0.00 0.00 0.00 92 1014.1
20260831141025 50 0 0.0 1.0 0.00 0.00 0.00 91 1014.2
20260831140524 50 0 0.0 2.0 0.00 0.00 0.00 91 1014.1
20260831140046 50 0 0.0 2.0 0.00 0.00 0.00 91 1014.2
20260831135524 50 0 0.0 2.0 0.00 0.00 0.00 91 1014.1
20260831135024 50 0 0.0 0.0 0.00 0.00 0.00 92 1014.1
20260831134553 50 0 0.0 0.0 0.00 0.00 0.00 91 1014.1
20260831134026 50 0 0.0 0.0 0.00 0.00 0.00 92 1014.0
20260831133526 50 0 0.0 0.0 0.00 0.00 0.00 92 1014.0
20260831133045 50 0 0.0 0.0 0.00 0.00 0.00 91 1014.0
20260831132527 50 0 0.0 0.0 0.00 0.00 0.00 91 1014.1
20260831132025 50 0 0.0 0.0 0.00 0.00 0.00 91 1014.2
20260831131542 50 0 0.0 0.0 0.00 0.00 0.00 91 1014.2
20260831131025 50 0 0.0 0.0 0.00 0.00 0.00 91 1014.3
20260831130523 50 0 0.0 0.0 0.00 0.00 0.00 92 1014.2
20260831130044 50 0 0.0 0.0 0.00 0.00 0.00 92 1014.3
20260831125525 50 0 0.0 0.0 0.00 0.00 0.00 91 1014.3
20260831125026 50 0 0.0 0.0 0.00 0.00 0.00 91 1014.4
20260831124557 50 0 0.0 0.0 0.00 0.00 0.00 91 1014.4
20260831124023 50 0 0.0 1.0 0.00 0.00 0.00 91 1014.4
20260831123525 50 0 0.0 1.0 0.00 0.00 0.00 91 1014.4
20260831123045 50 0 0.0 1.0 0.00 0.00 0.00 91 1014.5
20260831122524 50 0 0.0 2.0 0.00 0.00 0.00 90 1014.4
20260831122024 51 0 0.0 2.0 0.00 0.00 0.00 90 1014.6
20260831121544 51 0 0.0 2.0 0.00 0.00 0.00 90 1014.6
20260831121024 51 0 0.0 1.0 0.00 0.00 0.00 90 1014.6
20260831120526 51 0 0.0 0.0 0.00 0.00 0.00 90 1014.7
20260831120047 50 0 0.0 0.0 0.00 0.00 0.00 91 1014.7
20260831115523 50 0 0.0 0.0 0.00 0.00 0.00 91 1014.7
20260831115024 50 0 0.0 0.0 0.00 0.00 0.00 91 1014.7
20260831114553 50 0 0.0 0.0 0.00 0.00 0.00 91 1014.7
20260831114025 50 0 0.0 0.0 0.00 0.00 0.00 91 1014.8
20260831113523 50 0 0.0 0.0 0.00 0.00 0.00 91 1014.8
20260831113048 51 0 0.0 0.0 0.00 0.00 0.00 90 1014.9
20260831112524 51 0 0.0 0.0 0.00 0.00 0.00 90 1014.9
20260831112024 50 0 0.0 0.0 0.00 0.00 0.00 91 1014.9
20260831111545 50 0 0.0 0.0 0.00 0.00 0.00 91 1015.1
20260831111023 50 0 0.0 0.0 0.00 0.00 0.00 91 1015.1
20260831110525 50 0 0.0 0.0 0.00 0.00 0.00 91 1015.2
20260831110042 50 0 0.0 0.0 0.00 0.00 0.00 91 1015.2
20260831105525 50 0 0.0 0.0 0.00 0.00 0.00 91 1015.2
20260831105024 50 0 0.0 0.0 0.00 0.00 0.00 90 1015.3
20260831104604 51 0 0.0 0.0 0.00 0.00 0.00 90 1015.3
20260831104021 51 0 0.0 0.0 0.00 0.00 0.00 89 1015.3
20260831103529 51 0 0.0 3.0 0.00 0.00 0.00 89 1015.4
20260831103046 51 0 0.0 3.0 0.00 0.00 0.00 89 1015.4
20260831102527 51 0 0.0 3.0 0.00 0.00 0.00 90 1015.5
20260831102024 51 0 0.0 3.0 0.00 0.00 0.00 90 1015.5
20260831101548 51 0 0.0 3.0 0.00 0.00 0.00 91 1015.5
20260831101024 51 0 0.0 3.0 0.00 0.00 0.00 91 1015.5
20260831100525 51 0 0.0 3.0 0.00 0.00 0.00 91 1015.6
20260831100047 51 0 0.0 1.0 0.00 0.00 0.00 91 1015.6
20260831095526 51 261 0.0 1.0 0.00 0.00 0.00 91 1015.6
20260831095021 51 0 0.0 1.0 0.00 0.00 0.00 91 1015.8
20260831094603 51 0 0.0 0.0 0.00 0.00 0.00 90 1015.8
20260831094023 51 0 0.0 0.0 0.00 0.00 0.00 90 1016.0
20260831093528 51 0 0.0 0.0 0.00 0.00 0.00 90 1016.0
20260831093047 52 0 0.0 2.0 0.00 0.00 0.00 89 1016.1
20260831092525 52 0 0.0 2.0 0.00 0.00 0.00 89 1016.2
20260831092025 52 0 0.0 2.0 0.00 0.00 0.00 89 1016.2
20260831091554 52 252 0.0 1.0 0.00 0.00 0.00 90 1016.3
20260831091025 52 0 0.0 3.0 0.00 0.00 0.00 89 1016.3
20260831090524 52 0 0.0 3.0 0.00 0.00 0.00 89 1016.5
20260831090059 52 0 0.0 1.0 0.00 0.00 0.00 89 1016.5
20260831085524 52 0 0.0 1.0 0.00 0.00 0.00 89 1016.5
20260831085025 52 0 0.0 2.0 0.00 0.00 0.00 89 1016.6
20260831084547 52 0 0.0 2.0 0.00 0.00 0.00 89 1016.5
20260831084023 52 0 0.0 1.0 0.00 0.00 0.00 89 1016.4
20260831083525 52 0 0.0 2.0 0.00 0.00 0.00 89 1016.4
20260831083050 52 0 0.0 2.0 0.00 0.00 0.00 89 1016.3
20260831082524 53 0 0.0 1.0 0.00 0.00 0.00 88 1016.5
20260831082025 53 0 0.0 2.0 0.00 0.00 0.00 89 1016.5
20260831081544 52 0 0.0 2.0 0.00 0.00 0.00 89 1016.5
20260831081026 52 0 0.0 2.0 0.00 0.00 0.00 90 1016.5
20260831080524 52 0 0.0 2.0 0.00 0.00 0.00 90 1016.6
20260831080042 52 0 0.0 2.0 0.00 0.00 0.00 90 1016.6
20260831075522 52 0 0.0 2.0 0.00 0.00 0.00 90 1016.7
20260831075023 52 0 0.0 1.0 0.00 0.00 0.00 90 1016.7
20260831074551 52 0 0.0 1.0 0.00 0.00 0.00 89 1016.7
20260831074027 53 0 0.0 1.0 0.00 0.00 0.00 89 1016.8
20260831073523 53 0 0.0 1.0 0.00 0.00 0.00 89 1016.9
20260831073055 53 0 0.0 1.0 0.00 0.00 0.00 89 1016.8
20260831072526 53 0 0.0 1.0 0.00 0.00 0.00 88 1016.9
20260831072022 53 0 0.0 1.0 0.00 0.00 0.00 88 1017.0
20260831071545 53 229 0.0 1.0 0.00 0.00 0.00 88 1017.0
20260831071024 53 0 0.0 2.0 0.00 0.00 0.00 88 1017.1
20260831070524 53 0 0.0 2.0 0.00 0.00 0.00 87 1017.3
20260831070056 53 207 0.0 3.0 0.00 0.00 0.00 88 1017.3
20260831065526 53 0 0.0 3.0 0.00 0.00 0.00 88 1017.4
20260831065025 53 0 0.0 1.0 0.00 0.00 0.00 88 1017.5
20260831064548 53 0 0.0 1.0 0.00 0.00 0.00 88 1017.3
20260831064024 53 0 0.0 0.0 0.00 0.00 0.00 88 1017.4
20260831063522 54 0 0.0 0.0 0.00 0.00 0.00 88 1017.4
20260831063047 54 0 0.0 0.0 0.00 0.00 0.00 87 1017.5
20260831062525 54 0 0.0 0.0 0.00 0.00 0.00 87 1017.5
20260831062028 53 0 0.0 1.0 0.00 0.00 0.00 87 1017.5
20260831061551 54 0 0.0 2.0 0.00 0.00 0.00 87 1017.6
20260831061025 54 0 0.0 3.0 0.00 0.00 0.00 86 1017.7
20260831060528 54 0 0.0 4.0 0.00 0.00 0.00 86 1017.7
20260831060043 54 0 0.0 4.0 0.00 0.00 0.00 87 1017.8
20260831055523 54 0 0.0 2.0 0.00 0.00 0.00 87 1017.9
20260831055027 54 0 0.0 2.0 0.00 0.00 0.00 87 1017.9
20260831054550 54 0 0.0 0.0 0.00 0.00 0.00 87 1018.0
20260831054023 54 0 0.0 1.0 0.00 0.00 0.00 87 1018.0
20260831053524 54 0 0.0 1.0 0.00 0.00 0.00 88 1018.1
20260831053046 53 0 0.0 1.0 0.00 0.00 0.00 89 1018.2
20260831052524 53 234 0.0 1.0 0.00 0.00 0.00 89 1018.1
20260831052027 53 0 0.0 2.0 0.00 0.00 0.00 89 1018.2
20260831051544 53 0 0.0 2.0 0.00 0.00 0.00 90 1018.2
20260831051022 53 0 0.0 1.0 0.00 0.00 0.00 91 1018.2
20260831050523 53 0 0.0 1.0 0.00 0.00 0.00 91 1018.2
20260831050110 53 0 0.0 1.0 0.00 0.00 0.00 91 1018.2
20260831045523 53 0 0.0 0.0 0.00 0.00 0.00 91 1018.2
20260831045025 53 0 0.0 0.0 0.00 0.00 0.00 91 1018.2
20260831044607 53 0 0.0 0.0 0.00 0.00 0.00 91 1018.2
20260831044019 53 0 0.0 0.0 0.00 0.00 0.00 91 1018.2
20260831043519 53 0 0.0 0.0 0.00 0.00 0.00 91 1018.3
20260831043047 53 0 0.0 0.0 0.00 0.00 0.00 90 1018.3
20260831042523 53 0 0.0 0.0 0.00 0.00 0.00 90 1018.1
20260831042023 54 0 0.0 0.0 0.00 0.00 0.00 90 1018.2
20260831041555 54 0 0.0 0.0 0.00 0.00 0.00 90 1018.2
20260831041024 54 0 0.0 0.0 0.00 0.00 0.00 89 1018.3
20260831040525 54 0 0.0 0.0 0.00 0.00 0.00 89 1018.3
20260831040049 54 0 0.0 0.0 0.00 0.00 0.00 88 1018.4
20260831035524 54 0 0.0 0.0 0.00 0.00 0.00 87 1018.3
20260831035023 55 0 0.0 0.0 0.00 0.00 0.00 86 1018.4
20260831034550 55 0 0.0 0.0 0.00 0.00 0.00 86 1018.4
20260831034026 55 0 0.0 0.0 0.00 0.00 0.00 85 1018.3
20260831033525 55 0 0.0 0.0 0.00 0.00 0.00 85 1018.3
20260831033049 55 0 0.0 0.0 0.00 0.00 0.00 84 1018.2
20260831032530 55 0 0.0 0.0 0.00 0.00 0.00 85 1018.2
20260831032025 55 0 0.0 0.0 0.00 0.00 0.00 85 1018.0
20260831031547 56 0 0.0 0.0 0.00 0.00 0.00 85 1018.0
20260831031023 56 0 0.0 0.0 0.00 0.00 0.00 84 1018.0
20260831030526 57 0 0.0 0.0 0.00 0.00 0.00 83 1018.0
20260831030040 57 0 0.0 0.0 0.00 0.00 0.00 83 1018.0
20260831025524 57 0 0.0 0.0 0.00 0.01 0.00 83 1018.1
20260831025023 57 0 0.0 0.0 0.00 0.01 0.00 83 1018.1
20260831024609 57 0 0.0 0.0 0.00 0.01 0.00 83 1018.2
20260831024023 57 0 0.0 0.0 0.00 0.01 0.00 82 1018.2
20260831023523 58 0 0.0 0.0 0.00 0.01 0.00 81 1018.2
20260831023047 58 0 0.0 0.0 0.00 0.01 0.00 81 1018.1
20260831022524 58 0 0.0 0.0 0.00 0.01 0.00 80 1018.1
20260831022023 58 0 0.0 0.0 0.00 0.01 0.00 80 1018.0
20260831021545 59 0 0.0 0.0 0.00 0.01 0.00 79 1018.0
20260831021023 59 0 0.0 0.0 0.00 0.01 0.00 78 1018.2
20260831020522 59 0 0.0 0.0 0.00 0.01 0.00 78 1018.3
20260831015522 60 0 0.0 0.0 0.00 0.01 0.00 78 1018.2
20260831015022 60 0 0.0 0.0 0.00 0.01 0.00 78 1018.3